Weather History for Madera, CA

Change the Weather History Date:

Thursday, October 18, 2012

  Actual Average Record
Temperature  
Mean Temperature 74 °F 63 °F  
Max Temperature 91 °F 79 °F 92 °F (2003)
Min Temperature 57 °F 48 °F 40 °F (1998)
Degree Days  
Heating Degree Days 0    
Month to date heating degree days 16  
Since 1 July heating degree days 16  
Cooling Degree Days 9    
Month to date cooling degree days 82  
Year to date cooling degree days 1726  
Growing Degree Days 24 (Base 50)    
Moisture  
Dew Point 54 °F    
Average Humidity 56    
Maximum Humidity 86    
Minimum Humidity 26    
Precipitation  
Precipitation 0.00 in 0.03 in 0.16 in (2004)
Month to date precipitation T 0.30  
Year to date precipitation 6.22 8.59  
Since 1 July precipitation T 0.59  
Snow  
Snow 0.00 in - - ()
Month to date snowfall 0.0  
Since 1 July snowfall 0.0  
Since 1 September snowfall 0.0  
Snow Depth 0.00 in    
Sea Level Pressure  
Sea Level Pressure 29.93 in    
Wind  
Wind Speed 4 mph (NW)    
Max Wind Speed 13 mph    
Max Gust Speed 16 mph    
Visibility 10 miles    
Events      
T = Trace of Precipitation, MM = Missing Value Source: NWS Daily Summary

Daily Weather History Graph

Daily Weather History Graph

Search for Another Location

Airport:

Trip Planner

Search our weather history database for the weather conditions in past years. The results will help you decide how hot, cold, wet, or windy it might be!

Date:

Astronomy

Oct. 18, 2012 Rise Set
Actual Time 7:11 AM PDT 6:18 PM PDT
Civil Twilight 6:45 AM PDT 6:45 PM PDT
Nautical Twilight 6:14 AM PDT 7:15 PM PDT
Astronomical Twilight 5:44 AM PDT 7:45 PM PDT
Moon 10:53 AM PDT (10/18) 9:03 PM PDT (10/18)
Length of Visible Light 12h 00m
Length of Day
11h 07m
Waxing Crescent, 15% of the Moon is Illuminated
Oct 18
Waxing Crescent
Oct 21
First Quarter
Oct 29
Full
Nov 6
Last Quarter
Nov 13
New

Hourly Weather History & Observations

Time (PDT) Temp. Heat Index Dew Point Humidity Pressure Visibility Wind Dir Wind Speed Gust Speed Precip Events Conditions
12:53 AM 63.0 °F - 55.0 °F 75% 29.91 in 10.0 mi East 3.5 mph - N/A   Clear
1:53 AM 60.1 °F - 54.0 °F 80% 29.91 in 10.0 mi Calm Calm - N/A   Clear
2:53 AM 57.9 °F - 53.1 °F 84% 29.91 in 10.0 mi ESE 5.8 mph - N/A   Clear
3:53 AM 61.0 °F - 54.0 °F 78% 29.91 in 10.0 mi ENE 4.6 mph - N/A   Clear
4:53 AM 59.0 °F - 53.1 °F 81% 29.92 in 10.0 mi East 4.6 mph - N/A   Clear
5:53 AM 59.0 °F - 53.1 °F 81% 29.92 in 10.0 mi East 4.6 mph - N/A   Clear
6:53 AM 57.9 °F - 51.1 °F 78% 29.93 in 10.0 mi Calm Calm - N/A   Clear
7:53 AM 61.0 °F - 51.1 °F 70% 29.95 in 10.0 mi Calm Calm - N/A   Clear
8:53 AM 68.0 °F - 53.1 °F 59% 29.97 in 10.0 mi Calm Calm - N/A   Clear
9:53 AM 73.0 °F - 54.0 °F 51% 29.98 in 10.0 mi Variable 3.5 mph - N/A   Clear
10:53 AM 77.0 °F - 55.0 °F 47% 29.98 in 10.0 mi Variable 3.5 mph - N/A   Clear
11:53 AM 81.0 °F 81.0 °F 57.0 °F 44% 29.96 in 10.0 mi Calm Calm - N/A   Clear
12:53 PM 84.9 °F 83.6 °F 55.0 °F 36% 29.95 in 10.0 mi Variable 4.6 mph - N/A   Clear
1:53 PM 88.0 °F 85.7 °F 53.1 °F 30% 29.93 in 10.0 mi Variable 3.5 mph - N/A   Clear
2:53 PM 89.1 °F - 52.0 °F 28% 29.92 in 10.0 mi Calm Calm - N/A   Clear
3:53 PM 90.0 °F - 50.0 °F 25% 29.91 in 10.0 mi West 4.6 mph - N/A   Clear
4:53 PM 90.0 °F - 52.0 °F 27% 29.90 in 10.0 mi WNW 4.6 mph - N/A   Clear
5:53 PM 84.0 °F 82.6 °F 54.0 °F 35% 29.90 in 10.0 mi NW 4.6 mph - N/A   Clear
6:53 PM 73.9 °F - 55.0 °F 52% 29.91 in 10.0 mi WNW 5.8 mph - N/A   Clear
7:53 PM 75.0 °F - 55.9 °F 51% 29.93 in 10.0 mi NNW 5.8 mph - N/A   Clear
8:53 PM 72.0 °F - 55.9 °F 57% 29.94 in 10.0 mi NW 5.8 mph - N/A   Clear
9:53 PM 70.0 °F - 57.0 °F 63% 29.95 in 10.0 mi WNW 8.1 mph - N/A   Clear
10:53 PM 68.0 °F - 55.0 °F 63% 29.96 in 10.0 mi WNW 8.1 mph - N/A   Clear
11:53 PM 69.1 °F - 55.9 °F 63% 29.97 in 10.0 mi WNW 11.5 mph - N/A   Clear